Location: Bieujac
(44.5398°N, 0.1549°W)
Time: 07:48:20
(UTC+00:00)

BREEZE-M DEB (TANK) - Pass Details

Date: 17 November 2019
Orbit: 310 x 15439 km, 49.5° (Epoch: 09 December)

Event Time Altitude Azimuth Distance (km) Brightness Sun altitude
Exits shadow 05:52:41 13° 235° (SW) 1,034 3.4 -11.9°
Maximum altitude 05:53:12 14° 219° (SW) 1,005 3.4 -11.8°
Drops below altitude 10° 05:54:38 10° 181° (S) 1,290 4.4 -11.6°
Sets 05:57:30 0° 153° (SSE) 2,567 6.4 -11.1°
